{"data":{"norad_id":47290,"intl_designator":"2020-100AJ","name":"ONEWEB-0144","alt_names":[],"object_type":"PAYLOAD","status":"ACTIVE","operator":null,"country":"UK","launch_date":"2020-12-18","launch_site_code":"VOSTO","launch_vehicle":null,"mission":null,"orbit_class":"UNKNOWN","rcs_meters":null,"size_class":null,"mass_kg":null,"dimensions":null,"purposes":["comms"],"wikipedia_slug":null,"has_3d_model":false,"image_url":null,"decayed_at":null,"tle_current":{"epoch":"2026-09-19T23:26:00.254112Z","epoch_age_seconds":63541,"freshness":"FRESH","line1":"1 47290U 20100AJ  26262.97639183 -.00000127  00000+0 -38801-3 0  9993","line2":"2 47290  87.8991 331.8301 0001520  99.7681 260.3619 13.12441731277003","mean_motion":13.12441731,"eccentricity":0.000152,"inclination_deg":87.8991,"raan_deg":331.8301,"arg_perigee_deg":99.7681,"mean_anomaly_deg":260.3619,"bstar":-0.00038801,"rev_number":27700,"period_min":109.71915674327,"perigee_km":1212.5742212524,"apogee_km":1214.8821482685,"semimajor_km":7591.8651847605,"source":"CELESTRAK","updated_at":"2026-09-20T09:00:44.582744Z"}}}